Torna al catalogo

FENGYUN 1C DEB

AttivoPO
NORAD 31372·DEBRIS·🇨🇳 China

Lanciato May 10, 1999 da Taiyuan Satellite Launch Center

Loading…

Prossimi Passaggi (prossime 24 ore)

TLE

AggiornatoSource: Space-Track

Epoca: Sep 14, 2026, 08:07 UTC

1 31372U 99025BSC 26257.33831838  .00001904  00000-0  77725-3 0  9995
2 31372  99.3790 273.3790 0032095  10.2170 349.9655 14.28386518997839

Traccia FENGYUN 1C DEB in tempo reale con AllMySat

Download on the App Store